www.pogodaiklimat.ru

Погода и климат >> Архив погоды >> Швейцария >> Букс-Зур


ПОГОДА в Букс-Зуре

  • Прогноз погоды в Букс-Зуре
  • Монитор погоды в Букс-Зуре

АРХИВ ПОГОДЫ в Букс-Зуре

Время (UTC), дата Ветер
(напр.,м/с)
 
Видим.   Явления Облачность Т
(С)
Тd
(С)
f
(%)
Тe
(С)
Тes
(С)
Комфортность P
(гПа)
Po
(гПа)
Тmin
(С)
Tmax
(С)
R
(мм)
R24
(мм)
S
(см)
16 14.07 СВ 4
{9}
н/о н/о +20.9 +10.3 51 +23 +23 комфорт 1012.3 968.1
17 14.07
{8}
н/о н/о +20.3 +9.7 51 1013.1 968.8
18 14.07 С 3
{11}
25 км 9/9 1140 м
[]
+18.9 +9.1 53 +20 +20 1014.2 969.6 +25.8
19 14.07 СЗ 3
{6}
н/о н/о +17.6 +10.7 64 +18 +18 1014.7 969.9
20 14.07 С 2
{6}
н/о н/о +16.4 +10.9 70 +17 +17 1015.3 970.3
21 14.07 З 1
{6}
2000 м дождь 10/10 240 м
[]
+14.5 +13.0 91 +15 +15 1016.3 970.9 3
22 14.07 ЮВ 1
{2}
н/о н/о +14.0 +13.2 95 +15 +15 1016.3 970.8 4
23 14.07 СВ 1
{2}
н/о н/о +13.9 +13.4 97 +15 +15 1016.1 970.6 7
00 15.07 штиль 0
{6}
2000 м слаб. дождь 10/10 240 м
[]
+14.0 +13.3 96 +14 +14 1015.5 970.1 2
01 15.07 С 2
{3}
н/о н/о +14.4 +11.9 85 +14 +14 1014.8 969.5 0.4
02 15.07 СВ 1
{4}
н/о н/о +14.1 +12.3 89 +14 +14 1014.7 969.3
03 15.07 СВ 1
{4}
10 км дымка {дождь} 8/8 630 м
[]
+13.7 +12.1 90 +14 +14 1014.7 969.3
04 15.07 СВ 1
{3}
н/о н/о +13.6 +11.9 89 +15 +15 1014.5 969.0
05 15.07 Ю 1
{2}
н/о н/о +13.7 +11.8 88 +15 +15 1015.0 969.5
06 15.07 СВ 2
{4}
10 км дымка {дождь} 10/10 540 м
[]
+14.2 +12.0 87 +14 +14 1015.3 969.9 +13.4
07 15.07 СВ 2
{4}
н/о н/о +15.8 +12.6 81 +16 +16 1015.1 970.0
08 15.07 В 2
{5}
н/о н/о +15.4 +11.8 79 +16 +16 1015.8 970.6
09 15.07 СВ 2
{5}
10 км дымка 10/10 1020 м
[]
+16.5 +12.6 78 +17 +17 1015.7 970.7
10 15.07 СВ 2
{6}
н/о н/о +18.1 +12.8 71 +19 +19 1015.5 970.7
11 15.07 С 3
{7}
н/о н/о +19.3 +12.7 66 +21 +21 комфорт 1015.2 970.6
12 15.07 С 4
{7}
15 км 6/6 1230 м
[]
+19.9 +13.3 66 +22 +27 комфорт 1014.8 970.3
13 15.07 С 3
{6}
н/о н/о +21.8 +13.1 58 +24 +24 комфорт 1014.1 970.0
14 15.07 СВ 2
{7}
н/о н/о +24.3 +11.8 46 +26 +26 жарко 1013.8 970.1
15 15.07 С 2
{7}
25 км 8/8 1230 м
[]
+23.9 +12.2 48 +26 +27 жарко 1013.7 969.9
16 15.07 С 4
{6}
н/о н/о +23.6 +12.4 49 +25 +25 комфорт 1013.6 969.8
17 15.07 СЗ 3
{7}
н/о н/о +22.6 +12.8 54 +25 +25 комфорт 1013.9 969.9
18 15.07 СЗ 3
{7}
25 км 4/4 1440 м
[]
+22.4 +13.0 55 +25 +26 комфорт 1014.3 970.2 +24.3
19 15.07 СЗ 2
{4}
н/о н/о +21.2 +13.3 61 +24 +24 комфорт 1014.9 970.6
20 15.07 СЗ 1
{4}
н/о н/о +20.4 +13.3 64 +24 +24 комфорт 1015.5 971.1
21 15.07 ЮЗ 1
{4}
25 км 4/4 1230 м
[]
+18.5 +13.9 75 +21 +21 комфорт 1016.4 971.6
22 15.07 ЮВ 1
{2}
н/о н/о +16.3 +14.2 87 +18 +18 1017.0 971.9
23 15.07 ЮВ 1
{2}
н/о н/о +15.2 +13.7 91 +16 +16 1017.5 972.2
00 16.07 Ю 1
{4}
6000 м дымка ясно +14.6 +12.9 90 +16 +16 1017.6 972.2
01 16.07 ЮВ 1
{1}
н/о н/о +13.7 +12.5 92 +15 +15 1017.9 972.3
02 16.07 Ю 1
{2}
н/о н/о +13.5 +12.3 92 +14 +14 1017.9 972.3
03 16.07 Ю 1
{2}
6000 м дымка ясно +13.5 +11.9 90 +14 +14 1018.0 972.4
04 16.07 штиль 0
{2}
н/о н/о +12.5 +11.5 94 +12 +12 1018.2 972.4
05 16.07 штиль 0
{1}
н/о н/о +13.6 +11.6 88 +13 +13 1018.2 972.6
06 16.07 штиль 0
{2}
10 км дымка ясно +15.3 +12.6 84 +15 +19 1018.1 972.8 +12.1
07 16.07 С 2
{3}
н/о н/о +18.2 +12.7 70 +19 +19 1017.6 972.7
08 16.07 СВ 2
{3}
н/о н/о +18.8 +12.2 65 +20 +20 1017.5 972.7
09 16.07 СВ 1
{3}
14 км мгла 1/1 1500 м
[]
+20.6 +12.5 60 +24 +38 комфорт 1016.8 972.4
10 16.07 С 1
{3}
н/о н/о +23.3 +14.1 56 +27 +27 душно 1016.3 972.3
11 16.07 С 2
{7}
н/о н/о +24.3 +13.0 49 +26 +26 жарко 1015.9 972.1
12 16.07 С 2
{7}
18 км 3/3 1440 м
[]
+24.3 +11.9 46 +26 +38 жарко 1015.3 971.5
13 16.07
{5}
н/о н/о +26.3 +9.7 35 1014.5 971.0
14 16.07 В 2
{4}
н/о н/о +26.8 +10.7 36 +28 +28 жарко 1014.1 970.7
15 16.07 С 2
{5}
18 км 3/3 1500 м
[]
+27.3 +9.0 32 +27 +34 жарко 1013.8 970.5
16 16.07 СЗ 2
{5}
н/о н/о +26.5 +9.1 33 +27 +27 жарко 1013.7 970.3
17 16.07 С 3
{5}
н/о н/о +26.3 +5.3 26 +26 +26 жарко 1013.6 970.2
18 16.07 СЗ 2
{5}
25 км 5/0
[]
+24.5 +5.8 30 +24 +25 комфорт 1014.0 970.3 +27.3
19 16.07 ЮЗ 1
{3}
н/о н/о +21.7 +8.1 42 +23 +23 комфорт 1014.6 970.4
20 16.07 Ю 1
{2}
н/о н/о +18.6 +10.5 59 +21 +21 комфорт 1015.4 970.7
21 16.07 Ю 1
{3}
25 км 5/0
[]
+17.3 +9.9 62 +19 +19 1015.7 970.8
22 16.07 Ю 1
{2}
н/о н/о +15.5 +10.0 70 +17 +17 1016.2 971.0
23 16.07 ЮЗ 1
{2}
н/о н/о +15.2 +9.9 71 +16 +16 1016.3 971.0
00 17.07 Ю 1
{3}
6000 м мгла 3/0
[]
+14.2 +10.5 78 +15 +15 1016.7 971.2
01 17.07 ЮВ 1
{2}
н/о н/о +13.4 +10.5 83 +14 +14 1016.6 971.0
02 17.07 штиль 0
{1}
н/о н/о +12.8 +10.9 88 +12 +12 1016.4 970.7
03 17.07 штиль 0
{2}
8000 м дымка 1/0
[]
+12.7 +10.9 89 +12 +12 1016.3 970.6
04 17.07 штиль 0
{1}
н/о н/о +12.0 +10.4 90 +11 +11 1016.3 970.5
05 17.07 штиль 0
{1}
н/о н/о +13.1 +10.8 86 +13 +13 1015.9 970.3
06 17.07 В 1
{2}
15 км ясно +15.4 +11.1 76 +17 +20 1015.4 970.2 +11.8
07 17.07 штиль 0
{2}
н/о н/о +17.7 +11.0 65 +18 +18 1014.8 970.0
08 17.07 З 1
{2}
н/о н/о +20.3 +11.9 58 +24 +24 комфорт 1014.3 969.9
09 17.07 ЮЗ 1
{3}
16 км 4/0
[]
+22.7 +12.1 51 +25 +38 комфорт 1013.7 969.7
10 17.07 З 1
{3}
н/о н/о +24.8 +13.1 48 +27 +27 жарко 1013.0 969.4
11 17.07 С 2
{4}
н/о н/о +26.1 +9.8 36 +27 +27 жарко 1012.5 969.1
12 17.07 СЗ 2
{6}
20 км 6/6 1500 м
[]
+26.3 +10.9 38 +27 +34 жарко 1012.1 968.7
13 17.07 С 3
{6}
н/о н/о +26.5 +10.3 36 +27 +27 жарко 1011.8 968.5
14 17.07 СЗ 2
{7}
н/о н/о +27.4 +12.7 40 +29 +29 жарко 1011.3 968.1
15 17.07 СЗ 3
{7}
22 км 8/8 840 м
[]
+27.9 +11.8 37 +29 +31 жарко 1010.8 967.7
16 17.07 С 3
{6}
н/о н/о +27.4 +8.9 31 +27 +27 жарко 1010.4 967.3
17 17.07 СЗ 3
{5}
н/о н/о +27.2 +7.6 29 +27 +27 жарко 1010.2 967.0
18 17.07 З 1
{7}
22 км 8/8 720 м
[]
+26.2 +6.2 28 +26 +26 жарко 1010.4 967.1 +28.1
19 17.07 ЮВ 1
{5}
н/о н/о +23.4 +6.0 32 +24 +24 комфорт 1011.1 967.3
20 17.07 ЮВ 1
{2}
н/о н/о +19.4 +10.4 56 +22 +22 комфорт 1012.1 967.7
21 17.07 Ю 1
{5}
16 км 6/0
[]
+18.4 +8.8 54 +20 +20 1012.6 968.0
22 17.07 Ю 1
{3}
н/о н/о +16.7 +9.0 60 +18 +18 1013.1 968.2
23 17.07 штиль 0
{2}
н/о н/о +15.7 +9.3 66 +16 +16 1013.4 968.3
00 18.07 штиль 0
{5}
4000 м мгла 6/0
[]
+14.6 +10.1 74 +14 +14 1013.8 968.5
01 18.07 Ю 1
{2}
н/о н/о +14.3 +9.7 74 +15 +15 1013.8 968.5
02 18.07 штиль 0
{1}
н/о н/о +14.2 +9.7 74 +14 +14 1013.7 968.4
03 18.07 штиль 0
{2}
6000 м дымка 6/0
[]
+14.2 +9.7 74 +14 +14 1013.7 968.4
04 18.07 штиль 0
{2}
н/о н/о +13.8 +10.0 78 +13 +13 1013.9 968.5
05 18.07 штиль 0 н/о н/о +13.9 +10.4 79 +14 +14 1014.1 968.7
06 18.07 З 1
{3}
15 км 5/0
[]
+16.2 +10.0 67 +17 +19 1014.0 969.0 +13.6
07 18.07 СЗ 2
{3}
н/о н/о +19.0 +10.8 59 +21 +21 комфорт 1013.8 969.2
08 18.07 Ю 1
{3}
н/о н/о +21.1 +11.7 55 +23 +23 комфорт 1013.5 969.3
09 18.07 ЮЗ 1
{3}
18 км 4/0
[]
+24.2 +10.8 43 +25 +38 комфорт 1012.8 969.1
10 18.07 З 2
{4}
н/о н/о +25.5 +9.7 37 +26 +26 жарко 1012.6 969.1
11 18.07 СЗ 3
{6}
н/о н/о +25.7 +9.8 37 +26 +26 жарко 1012.6 969.1
12 18.07 З 2
{6}
20 км 4/4 1500 м
[]
+27.5 +7.2 28 +27 +37 жарко 1011.9 968.7
13 18.07 СЗ 2
{5}
н/о н/о +27.0 +8.4 31 +27 +27 жарко 1011.6 968.4
14 18.07 З 2
{4}
н/о н/о +27.0 +9.3 33 +27 +27 жарко 1011.5 968.3
15 18.07 З 2
{5}
22 км 5/5 1140 м
[]
+26.7 +8.6 32 +27 +32 жарко 1011.4 968.1
16 18.07 ЮЗ 2
{4}
н/о н/о +26.8 +8.6 32 +27 +27 жарко 1011.3 968.0
17 18.07 С 2
{3}
н/о н/о +26.5 +10.1 36 +27 +27 жарко 1011.3 968.0
18 18.07 С 1
{5}
22 км 9/9 1440 м
[]
+24.9 +12.5 46 +27 +27 жарко 1011.8 968.2 +27.7
19 18.07 штиль 0
{2}
н/о н/о +22.2 +14.1 60 +25 +25 комфорт 1012.8 968.8
20 18.07 ЮВ 1
{2}
н/о н/о +20.9 +13.6 63 +25 +25 комфорт 1013.8 969.5
21 18.07 Ю 1
{3}
8000 м мгла 10/10 1440 м
[]
+21.1 +12.9 59 +23 +23 комфорт 1014.0 969.8
22 18.07 ЮВ 1
{2}
н/о н/о +19.6 +13.1 66 +22 +22 комфорт 1014.4 969.9
23 18.07 ЮВ 1
{3}
н/о н/о +19.2 +13.0 67 +22 +22 комфорт 1014.8 970.2
00 19.07 СВ 1
{3}
6000 м мгла 5/0
[]
+18.8 +13.0 69 +21 +21 комфорт 1015.1 970.4
01 19.07 штиль 0
{1}
н/о н/о +16.9 +13.2 79 +17 +17 1015.6 970.6
02 19.07 ЮЗ 1
{2}
н/о н/о +18.1 +12.9 72 +19 +19 1015.5 970.7
03 19.07 штиль 0
{2}
8000 м дымка 8/0
[]
+16.2 +13.3 83 +16 +16 1016.1 971.0
04 19.07 штиль 0
{1}
н/о н/о +16.2 +13.6 85 +16 +16 1016.3 971.2
05 19.07 штиль 0
{1}
н/о н/о +16.7 +13.6 82 +17 +17 1016.4 971.4
06 19.07 штиль 0
{2}
10 км дымка 6/0
[]
+19.2 +13.3 69 +20 +23 1016.3 971.7 +15.9
07 19.07 З 1
{2}
н/о н/о +20.2 +13.2 64 +23 +23 комфорт 1016.5 972.0
08 19.07 З 1
{3}
н/о н/о +22.7 +12.8 54 +26 +26 жарко 1016.1 972.0
09 19.07 ЮЗ 1
{3}
15 км 3/3 1500 м
[]
+23.5 +12.0 48 +25 +36 комфорт 1016.0 972.0
10 19.07 З 2
{6}
н/о н/о +25.7 +13.4 47 +28 +28 жарко 1015.4 971.8
11 19.07 СЗ 2
{4}
н/о н/о +25.1 +12.6 46 +27 +27 жарко 1015.1 971.4
12 19.07 СЗ 2
{6}
16 км 5/5 1500 м
[]
+27.7 +13.6 42 +30 +39 жарко 1014.1 970.9
13 19.07 С 3
{5}
н/о н/о +27.8 +12.0 38 +29 +29 жарко 1013.8 970.6
14 19.07 С 4
{7}
н/о н/о +28.3 +13.1 39 +30 +30 жарко 1013.5 970.4
15 19.07 С 2
{7}
25 км 8/8 630 м
[]
+27.8 +13.2 41 +30 +31 жарко 1013.4 970.2
16 19.07
{6}
н/о н/о +28.1 +13.0 39 1013.0 969.9
17 19.07 С 3
{7}
н/о н/о +27.0 +13.0 42 +29 +29 жарко 1013.2 969.9
18 19.07 С 2
{7}
20 км 5/0
[]
+26.2 +12.9 44 +28 +29 жарко 1013.2 969.8 +28.5
19 19.07 СВ 1
{4}
н/о н/о +24.7 +13.1 48 +27 +27 жарко 1013.6 969.9
20 19.07 Ю 1
{2}
н/о н/о +20.6 +14.6 68 +25 +25 комфорт 1014.8 970.4
21 19.07 Ю 1
{4}
10 км мгла 4/0
[]
+19.8 +14.5 71 +23 +23 комфорт 1015.1 970.6
22 19.07 Ю 1
{2}
н/о н/о +18.5 +14.5 78 +21 +21 комфорт 1015.6 970.9
23 19.07 штиль 0
{2}
н/о н/о +17.8 +14.1 79 +18 +18 1015.7 970.9
00 20.07 штиль 0
{4}
6000 м дымка ясно +16.5 +14.1 86 +16 +16 1015.6 970.6
01 20.07 ЮВ 1
{1}
н/о н/о +15.8 +14.0 89 +17 +17 1015.5 970.4
02 20.07 штиль 0
{1}
н/о н/о +15.0 +13.5 91 +15 +15 1015.7 970.4
03 20.07 Ю 1
{2}
8000 м дымка ясно +15.0 +13.2 89 +16 +16 1015.7 970.4
04 20.07 З 1
{1}
н/о н/о +14.4 +13.1 92 +15 +15 1016.0 970.6
05 20.07 СВ 1
{2}
н/о н/о +15.4 +13.4 88 +17 +17 1016.1 970.9
06 20.07 ЮЗ 1
{2}
12 км дымка 5/0
[]
+18.1 +14.2 78 +19 +22 1015.9 971.1 +14.4
07 20.07 ЮЗ 1
{2}
н/о н/о +20.4 +14.6 69 +24 +24 комфорт 1015.7 971.3
08 20.07 ЮЗ 2
{3}
н/о н/о +21.6 +14.0 62 +24 +24 комфорт 1015.5 971.3
09 20.07 Ю 3
{4}
12 км дымка 8/0 2000 м
[]
+24.7 +14.2 52 +27 +34 жарко 1014.8 971.1
10 20.07 ЮЗ 4
{8}
н/о н/о +26.9 +13.6 44 +29 +29 жарко 1014.5 971.1
11 20.07 ЮЗ 5
{10}
н/о н/о +28.6 +13.8 40 +30 +30 жарко 1014.1 971.0
12 20.07 З 6
{13}
12 км дымка 8/8 1140 м
[]
+29.8 +11.3 32 +30 +32 жарко 1013.5 970.6
13 20.07 ЮЗ 5
{11}
н/о н/о +31.2 +10.7 28 +31 +31 жарко 1013.1 970.4
14 20.07 ЮЗ 5
{11}
н/о н/о +31.6 +11.0 28 +32 +32 жарко 1013.0 970.4
15 20.07 З 6
{11}
14 км мгла 6/6 1500 м
[]
+32.1 +9.2 24 +31 +33 жарко 1012.7 970.2
16 20.07 ЮЗ 5
{11}
н/о н/о +31.0 +7.8 24 +30 +30 жарко 1012.7 970.0
17 20.07 ЮЗ 4
{11}
н/о н/о +29.5 +9.3 28 +29 +29 жарко 1013.2 970.3
18 20.07 ЮЗ 3
{11}
16 км 9/9 1500 м
[]
+28.6 +10.8 33 +29 +29 жарко 1013.5 970.4 +32.4
19 20.07 штиль 0
{4}
н/о н/о +24.8 +12.7 47 +27 +27 жарко 1014.5 970.8
20 20.07 Ю 1
{2}
н/о н/о +23.0 +13.9 57 +26 +26 жарко 1015.7 971.7
21 20.07 В 1
{4}
16 км 6/6 1500 м
[]
+21.1 +13.6 62 +24 +24 комфорт 1016.6 972.2
22 20.07 ЮЗ 1
{3}
н/о н/о +20.8 +13.7 64 +25 +25 комфорт 1017.1 972.7
23 20.07 ЮЗ 2
{3}
н/о н/о +20.9 +13.9 64 +24 +24 комфорт 1017.3 972.9
00 21.07 З 1
{4}
8000 м дождь 10/10 1140 м
[]
+18.1 +16.5 90 +20 +20 1018.2 973.3 0.5
01 21.07 ЮВ 1
{3}
н/о н/о +18.6 +17.6 94 +21 +21 комфорт 1019.1 974.2 0.2
02 21.07 Ю 1
{2}
н/о н/о +19.1 +17.4 90 +22 +22 комфорт 1019.4 974.6 0.1
03 21.07 В 1
{3}
6000 м слаб. дождь 10/10 1140 м
[]
+18.6 +17.9 96 +21 +21 комфорт 1019.9 975.0 0.8
04 21.07 СВ 1
{2}
н/о н/о +18.4 +17.7 96 +21 +21 комфорт 1020.2 975.3 0.8
05 21.07 штиль 0
{2}
н/о н/о +18.7 +17.8 95 +20 +20 1020.8 975.9
06 21.07 С 1
{3}
6000 м дымка {дождь} 8/8 1140 м
[]
+19.2 +18.4 95 +23 +23 комфорт 1021.6 976.7 +18.1 0.1
07 21.07 ЮЗ 1
{2}
н/о н/о +20.2 +18.4 89 +25 +25 комфорт 1021.8 977.1
08 21.07 З 2
{3}
н/о н/о +22.0 +18.7 82 +27 +27 душно 1021.9 977.4
09 21.07 СЗ 1
{3}
10 км дымка 8/8 1500 м
[]
+22.8 +18.7 78 +29 +32 очень
душно
1021.8 977.5
10 21.07 СЗ 1
{3}
н/о н/о +24.1 +18.6 71 +29 +29 душно 1021.6 977.5
11 21.07 ЮЗ 2
{4}
н/о н/о +25.2 +17.7 63 +29 +29 душно 1021.3 977.4
12 21.07 СЗ 2
{4}
10 км дымка 8/8 1500 м
[]
+24.9 +16.4 59 +28 +32 жарко 1021.2 977.2
13 21.07 С 1
{4}
н/о н/о +25.8 +18.9 66 +31 +31 очень
душно
1020.9 977.1 0.5
14 21.07 ЮЗ 1
{2}
н/о н/о +25.9 +17.3 59 +30 +30 душно 1020.6 976.8
15 21.07 С 2
{5}
13 км мгла 8/8 1500 м
[]
+27.4 +15.3 48 +30 +32 жарко 1020.0 976.5
16 21.07 С 2
{5}
н/о н/о +28.8 +15.2 44 +32 +32 душно 1019.6 976.3
17 21.07 С 3
{6}
н/о н/о +28.2 +14.5 43 +30 +30 жарко 1019.7 976.3

 

Местоположение метеостанции Букс-Зур (Швейцария): широта 47.38 долгота 8.08 высота над уровнем моря 387 м.

В архиве по умолчанию представлена погода в Букс-Зуре за последнюю неделю. Архивные данные за месяц целиком и за предыдущие месяцы, начиная с января 2011 года, Вы можете получить, выбрав интересующий диапазон дат из раскрывающегося списка и нажав кнопку "Ввод!".


*Определитесь, кто Вы:
робот инопланетянин человек

Внимание! Время в таблицах - всемирное. Для получения местного времени необходимо прибавить поправку, которая равна 1 ч.

Смотрите также архив погоды в соседних городах и на ближайших метеорологических станциях:

Погода в Госгене (Швейцария) (9 км)
Погода в Бругг-Вилдегге (Швейцария) (12 км)
Погода в Рюненберге (Швейцария) (16 км)
Погода в Лауфенбурге (Швейцария) (19 км)
Погода в Институте Пауля Шеррера (Швейцария) (20 км)
Погода в Мозене (Швейцария) (20 км)
Погода в Беромюнстере (Швейцария) (21 км)
Погода в Эгольцвиле (Швейцария) (23 км)
Погода в Лангенбруке (Швейцария) (24 км)
Погода на Бецнау (Швейцария) (24 км)

Пояснения к столбцам:

Ветер - указаны скорость ветра в м/с - средняя за 10 мин, порывы в срок и между сроками (в фигурных скобках) и направление, откуда дует ветер: С - северный, СВ - северо-восточный, В - восточный, ЮВ - юго-восточный, Ю - южный, ЮЗ - юго-западный, З - западный, СЗ - северо-западный.
Видимость - горизонтальная дальность видимости в метрах или километрах. При видимости от 1 до 10 км при отсутствии осадков обычно наблюдается дымка, при ухудшении видимости до 1 км и менее - туман. В сухую погоду видимость может ухудшаться дымом, пылью или мглою.
Явления - указаны атмосферные явления, наблюдавшиеся в срок или в последний час перед сроком; фигурными скобками обозначены явления, наблюдавшиеся между сроками (за 1-3 часа до срока); квадратными скобками обозначены град или гололедные отложения с указанием их диаметра в мм.
Облачность - указаны через наклонную черту общая и нижняя облачность в баллах и высота нижней границы облаков в метрах; квадратными скобками обозначены формы облаков: Ci - перистые, Cs - перисто-слоистые, Cc - перисто-кучевые, Ac - высококучевые, As - высокослоистые, Sc - слоисто-кучевые, Ns - слоисто-дождевые, Cu - кучевые, Cb - кучево-дождевые. Подробнее классификацию облаков см. в Атласе облаков (PDF).
T - Температура воздуха - температура, измеренная на высоте 2 м над землей.
Td - Температура точки росы - температура, при понижении до которой содержащийся в воздухе водяной пар достигнет насыщения.
f - Относительная влажность воздуха - влажноcть воздуха, измеренная на высоте 2 м над землей.
Te - Эффективная температура - температура, которую ощущает одетый по сезону человек в тени. Характеристика душности погоды. При расчете учитывается влияние влажности воздуха и скорости ветра на теплоощущения человека.
Tes - Эффективная температура на солнце - температура, которую ощущает человек, с поправкой на солнечный нагрев. Характеристика знойности погоды. Зависит от высоты солнца над горизонтом, облачности и скорости ветра. Ночью, в пасмурную погоду, а также при ветре 12 м/с и более поправка равна нулю.
P - Атмосферное давление - приведенное к уровню моря атмосферное давление.
Po - Атмосферное давление - измеренное на уровне метеостанции атмосферное давление.
Tmin - Минимальная температура - минимум температуры воздуха на высоте 2 м над землей.
Tmax - Максимальная температура - максимум температуры воздуха на высоте 2 м над землей.
R - Количество осадков - Количество выпавших осадков за период времени, мм. При наведении курсора мыши на число - период времени, за который выпало указанное количество осадков.
R24 - Количество осадков - Количество выпавших осадков за 24 часа, мм.
S - Снежный покров - Высота снежного покрова, см. При наведении курсора мыши на число - состояние снежного покрова и степень покрытия местности в баллах.